TOURFACTS.DK  
Stats and Facts from Tour de France.

Tour de France 2019 starts in 347 days
  Riders   Stages   Teams   Summits   Yearly  


 
Search by year

After 2018 - Stage 14:
 15000 starters.
  5163 different riders.
  639 teams.
  2246 stages.
  456 restdays.
  441957.60 km.
  5678 abandonnees.


Top 3
GC
Christopher Froome86:20:55
Rigoberto Urán86:21:49
Romain Bardet86:23:15
Climb
Warren Barguil169 pt.
Primoz Roglic80 pt.
Thomas De Gendt64 pt.
Sprint
Michael Matthews359 pt.
André Greipel234 pt.
Edvald Boasson Hagen220 pt.
Youth
Simon Yates86:27:09
Louis Meintjes86:29:15
Emanuel Buchmann86:54:16
Facts from Tour de France 2002
  |   Stages.  |   Stage winners.  |   Days in yellow  |   Average speed.  |   Route.  |   Teams.  |   All riders.  |   Rookies.  |  

  |   Withdrawls.  |   GC.  |   Polka  |   Green  |   White  |   Summits. (In tour)  |   Miscellaneous.  |  

Stage 14 on July 21st. 2002
         Owning:    Lance Armstrong    
Pick a stage:  Pro 1 2 3 4 5 6 7 8 9 10 11 12 13 14 15 16 17 18 19 20
From: Lodève    To: Mont-VentouxDist:221.00 km.
Cat: HMont VentouxMARRichard Virenque
40 points
 

Average speed for all riders in stage:  36,498 km./hr.
    Place:Name:Team:Time:Km/h:
MARRichard VirenqueBELDomo-Farm Frites05:43:26  +  00:00:00=38,610 
RUSAlexandre BotcharovFRAAg2r Prevoyance05:45:24  +  00:01:58=38,390 
USALance ArmstrongUSAUS Postal Service05:45:46  +  00:02:20=38,350 
4 ITAMarco SerpelliniITALampre-Daikin05:46:20  +  00:02:54=38,287 
5 URSRaimondas RumsasITALampre-Daikin05:47:02  +  00:03:36=38,210 
6 ITAIvan BassoITAFassa Bortolo05:47:05  +  00:03:39=38,204 
7 ESPFrancisco ManceboESPibanesto.com05:47:17  +  00:03:51=38,182 
8 ESPJoseba BelokiESPO.N.C.E.-Eroski05:47:31  +  00:04:05=38,156 
9 POLDariusz BaranowskiESPibanesto.com05:47:36  +  00:04:10=38,147 
10 ITAIvan GottiITAAlessio05:47:42  +  00:04:16=38,136 
11 USALevi LeipheimerNLDRabobank05:47:51  +  00:04:25=38,120 
12 PORJosé AzevedoESPO.N.C.E.-Eroski05:48:11  +  00:04:45=38,083 
13 FRAStéphane GoubertFRAJean Delatour05:48:51  +  00:05:25=38,011 
14 FRADavid MoncoutiéFRACofidis Credit Par Telephone05:49:12  +  00:05:46=37,973 
15 ESPRoberto HerasUSAUS Postal Service05:49:12  +  00:05:46=37,973 
16 ESPÓscar SevillaESPKelme-Costa Blanca05:49:18  +  00:05:52=37,962 
17 ITACristian MoreniITAAlessio05:49:23  +  00:05:57=37,953 
18 FRAJean-Cyril RobinFRAfdjeux.com05:50:33  +  00:07:07=37,826 
19 USATyler HamiltonDNKTeam CSC-Tiscali05:50:33  +  00:07:07=37,826 
20 ESPMikel PraderaESPO.N.C.E.-Eroski05:50:55  +  00:07:29=37,787 
21 ESPIgor GonzalezESPO.N.C.E.-Eroski05:50:55  +  00:07:29=37,787 
22 ESPRoberto LaisekaESPEuskaltel - Euskadi05:50:55  +  00:07:29=37,787 
23 NEDMichael BoogerdNLDRabobank05:51:13  +  00:07:47=37,754 
24 ITAMassimiliano LelliFRACofidis Credit Par Telephone05:51:23  +  00:07:57=37,737 
25 KAZAndrei KivilevFRACofidis Credit Par Telephone05:51:27  +  00:08:01=37,729 
26 ESPUnai OsaESPibanesto.com05:51:40  +  00:08:14=37,706 
27 ITAWladimir BelliITAFassa Bortolo05:51:40  +  00:08:14=37,706 
28 ESPJosé RubieraUSAUS Postal Service05:51:56  +  00:08:30=37,678 
29 ESPCarlos SastreDNKTeam CSC-Tiscali05:52:03  +  00:08:37=37,665 
30 FRANicolas VogondyFRAfdjeux.com05:52:03  +  00:08:37=37,665 
31 POLPiotr WadeckiBELDomo-Farm Frites05:52:23  +  00:08:57=37,629 
32 SUIBeat ZbergNLDRabobank05:52:28  +  00:09:02=37,621 
33 FRAStéphane AugeFRAJean Delatour05:52:39  +  00:09:13=37,601 
34 BELChristophe BrandtBELLotto-Adecco05:52:49  +  00:09:23=37,583 
35 ITAMarco VeloITAFassa Bortolo05:52:52  +  00:09:26=37,578 
36 FRAChristophe EdaleineFRAJean Delatour05:52:59  +  00:09:33=37,566 
37 FRAPatrice HalgandFRAJean Delatour05:53:18  +  00:09:52=37,532 
38 FRASylvain ChavanelFRABonjour05:53:25  +  00:09:59=37,519 
39 ESPHaimar ZubeldiaESPEuskaltel - Euskadi05:53:34  +  00:10:08=37,504 
40 UKRVolodymir GustovITAFassa Bortolo05:54:09  +  00:10:43=37,442 
41 DENNicki SørensenDNKTeam CSC-Tiscali05:54:29  +  00:11:03=37,407 
42 GERUdo BöltsUSATeam Telekom05:54:41  +  00:11:15=37,385 
43 FRAChristophe MoreauFRACredit Agricole05:54:47  +  00:11:21=37,375 
44 NORThor HushovdFRACredit Agricole05:55:09  +  00:11:43=37,336 
45 USABobby JulichUSATeam Telekom05:55:11  +  00:11:45=37,333 
46 ITAAndrea TafiITAMapei-Quick Step05:55:40  +  00:12:14=37,282 
47 ESPMiguel Angel MartinezITAMapei-Quick Step05:55:47  +  00:12:21=37,270 
48 ESPIñigo ChaurreauFRAAg2r Prevoyance05:55:53  +  00:12:27=37,259 
49 FRACédric VasseurFRACofidis Credit Par Telephone05:56:01  +  00:12:35=37,245 
50 ESPDaniel AtienzaFRACofidis Credit Par Telephone05:56:10  +  00:12:44=37,230 
51 FRALaurent LefèvreFRAJean Delatour05:56:15  +  00:12:49=37,221 
52 FRAEmmanuel MagnienFRABonjour05:57:16  +  00:13:50=37,115 
53 USAKevin LivingstonUSATeam Telekom05:57:59  +  00:14:33=37,041 
54 FRALaurent BrochardFRAJean Delatour05:58:13  +  00:14:47=37,017 
55 SUILaurent DufauxITAAlessio05:58:17  +  00:14:51=37,010 
56 COLSantiago BoteroESPKelme-Costa Blanca05:58:30  +  00:15:04=36,987 
57 ESPJosé Enrique GutierrezESPKelme-Costa Blanca05:58:30  +  00:15:04=36,987 
58 FRAAndy FlickingerFRAAg2r Prevoyance05:58:43  +  00:15:17=36,965 
59 RUSSerguei IvanovITAFassa Bortolo05:58:59  +  00:15:33=36,938 
60 BELDave BruylandtsBELDomo-Farm Frites06:00:07  +  00:16:41=36,821 
61 FRACyril DesselFRAJean Delatour06:00:07  +  00:16:41=36,821 
62 CZETomas KonecnyBELDomo-Farm Frites06:00:07  +  00:16:41=36,821 
63 BELAxel MerckxBELDomo-Farm Frites06:00:07  +  00:16:41=36,821 
64 USAFloyd LandisUSAUS Postal Service06:00:07  +  00:16:41=36,821 
65 ESPSantiago BlancoESPibanesto.com06:00:07  +  00:16:41=36,821 
66 GERGrischa NiermannNLDRabobank06:00:50  +  00:17:24=36,748 
67 MLTDavid MillarFRACofidis Credit Par Telephone06:01:26  +  00:18:00=36,687 
68 ITADario FrigoITATacconi Sport06:02:24  +  00:18:58=36,589 
69 GERRolf AldagUSATeam Telekom06:02:24  +  00:18:58=36,589 
70 ESPMarcos SerranoESPO.N.C.E.-Eroski06:02:43  +  00:19:17=36,557 
71 GERJörg JakscheESPO.N.C.E.-Eroski06:02:43  +  00:19:17=36,557 
72 FRAAnthony MorinFRACredit Agricole06:03:17  +  00:19:51=36,500 
73 AUTGerhard TrampuschITAMapei-Quick Step06:05:36  +  00:22:10=36,269 
74 DDRErik ZabelUSATeam Telekom06:05:41  +  00:22:15=36,261 
75 FRAFrédéric BessyFRACredit Agricole06:05:41  +  00:22:15=36,261 
76 FRAChristophe MenginFRAfdjeux.com06:05:41  +  00:22:15=36,261 
77 ITAGianluca BortolamiITATacconi Sport06:05:41  +  00:22:15=36,261 
78 ITAMauro RadaelliITATacconi Sport06:05:41  +  00:22:15=36,261 
79 GERSteffen WesemannUSATeam Telekom06:05:41  +  00:22:15=36,261 
80 RSARobert HunterITAMapei-Quick Step06:05:41  +  00:22:15=36,261 
81 FRAFranck RenierFRABonjour06:05:41  +  00:22:15=36,261 
82 AUSStuart O'GradyFRACredit Agricole06:05:41  +  00:22:15=36,261 
83 ESPJosé Angel VidalESPKelme-Costa Blanca06:05:41  +  00:22:15=36,261 
84 NEDAddy EngelsNLDRabobank06:05:41  +  00:22:15=36,261 
85 FRADamien NazonFRABonjour06:05:41  +  00:22:15=36,261 
86 FRALaurent JalabertDNKTeam CSC-Tiscali06:05:45  +  00:22:19=36,254 
87 ITAAndrea PeronDNKTeam CSC-Tiscali06:05:45  +  00:22:19=36,254 
88 URSRaivis BelohvosciksITALampre-Daikin06:05:45  +  00:22:19=36,254 
89 ESPPedro HorrilloITAMapei-Quick Step06:05:45  +  00:22:19=36,254 
90 ESPAbraham OlanoESPO.N.C.E.-Eroski06:05:45  +  00:22:19=36,254 
91 ESPIsidro NozalESPO.N.C.E.-Eroski06:05:45  +  00:22:19=36,254 
92 GERDanilo HondoUSATeam Telekom06:09:22  +  00:25:56=35,899 
93 NEDLeon van BonBELDomo-Farm Frites06:09:56  +  00:26:30=35,844 
94 CZEPavel PadrnosUSAUS Postal Service06:10:00  +  00:26:34=35,838 
95 ITAGian Matteo FagniniUSATeam Telekom06:10:00  +  00:26:34=35,838 
96 ITAAndrea BrognaraITAAlessio06:10:08  +  00:26:42=35,825 
97 BELPaul Van HyfteDNKTeam CSC-Tiscali06:10:08  +  00:26:42=35,825 
98 AUSBaden CookeFRAfdjeux.com06:10:08  +  00:26:42=35,825 
99 BELLudo DierckxsensITALampre-Daikin06:10:08  +  00:26:42=35,825 
100 NEDServais KnavenBELDomo-Farm Frites06:10:08  +  00:26:42=35,825 
101 BELMario AertsBELLotto-Adecco06:10:08  +  00:26:42=35,825 
102 FRAFranck BouyerFRABonjour06:10:08  +  00:26:42=35,825 
103 FRAWalter BénéteauFRABonjour06:10:08  +  00:26:42=35,825 
104 BELThierry MarichalBELLotto-Adecco06:10:08  +  00:26:42=35,825 
105 ITAAlessandro CortinovisITALampre-Daikin06:10:08  +  00:26:42=35,825 
106 FRASébastien HinaultFRACredit Agricole06:10:08  +  00:26:42=35,825 
107 ESPIban MayoESPEuskaltel - Euskadi06:10:08  +  00:26:42=35,825 
108 FRASandy CasarFRAfdjeux.com06:10:08  +  00:26:42=35,825 
109 ITAMassimo DonatiITATacconi Sport06:10:08  +  00:26:42=35,825 
110 ESPFrancisco CabelloESPKelme-Costa Blanca06:10:08  +  00:26:42=35,825 
111 ESPIñigo CuestaFRACofidis Credit Par Telephone06:10:08  +  00:26:42=35,825 
112 ESPDavid EtxebarriaESPEuskaltel - Euskadi06:10:08  +  00:26:42=35,825 
113 COLVictor Hugo PenaUSAUS Postal Service06:10:08  +  00:26:42=35,825 
114 BELMarc WautersNLDRabobank06:10:08  +  00:26:42=35,825 
115 DENJakob PiilDNKTeam CSC-Tiscali06:10:08  +  00:26:42=35,825 
116 NEDErik DekkerNLDRabobank06:10:08  +  00:26:42=35,825 
117 ITAMassimo ApollonioITATacconi Sport06:10:08  +  00:26:42=35,825 
118 GERJens VoigtFRACredit Agricole06:10:08  +  00:26:42=35,825 
119 FRAJérôme PineauFRABonjour06:10:08  +  00:26:42=35,825 
120 ESPBingen FernandezFRACofidis Credit Par Telephone06:10:08  +  00:26:42=35,825 
121 VENUnai EtxebarriaESPEuskaltel - Euskadi06:10:08  +  00:26:42=35,825 
122 ITAEddy MazzoleniITATacconi Sport06:10:08  +  00:26:42=35,825 
123 FRAJérôme BernardFRAJean Delatour06:10:08  +  00:26:42=35,825 
124 LUXBenoit JoachimUSAUS Postal Service06:10:08  +  00:26:42=35,825 
125 SUIThierry LoderFRAAg2r Prevoyance06:10:08  +  00:26:42=35,825 
126 FRAAnthony LangellaFRACredit Agricole06:10:08  +  00:26:42=35,825 
127 FRAChristophe OriolFRAAg2r Prevoyance06:10:08  +  00:26:42=35,825 
128 NEDBram de GrootNLDRabobank06:10:08  +  00:26:42=35,825 
129 SVKJán SvoradaITALampre-Daikin06:10:08  +  00:26:42=35,825 
130 ITAFabio BaldatoITAFassa Bortolo06:10:08  +  00:26:42=35,825 
131 ESPConstantino ZaballaESPKelme-Costa Blanca06:10:08  +  00:26:42=35,825 
132 COLFred RodriguezBELDomo-Farm Frites06:10:08  +  00:26:42=35,825 
133 SUIRubens BertogliatiITALampre-Daikin06:10:08  +  00:26:42=35,825 
134 BELNico MattanFRACofidis Credit Par Telephone06:10:08  +  00:26:42=35,825 
135 BELHans De ClercqBELLotto-Adecco06:10:08  +  00:26:42=35,825 
136 SLOMartin HvastijaITAAlessio06:10:08  +  00:26:42=35,825 
137 HUNLaszlo BodrogiITAMapei-Quick Step06:10:08  +  00:26:42=35,825 
138 FRAFrédéric GuesdonFRAfdjeux.com06:10:08  +  00:26:42=35,825 
139 ITAGiuseppe GueriniUSATeam Telekom06:10:08  +  00:26:42=35,825 
140 FRALudovic TurpinFRAAg2r Prevoyance06:10:21  +  00:26:55=35,804 
141 ESPJavier PascualESPibanesto.com06:10:21  +  00:26:55=35,804 
142 AUSRobbie McEwenBELLotto-Adecco06:12:45  +  00:29:19=35,573 
143 BELSerge BaguetBELLotto-Adecco06:12:45  +  00:29:19=35,573 
144 ESPGorka ArrizabalagaESPEuskaltel - Euskadi06:12:45  +  00:29:19=35,573 
145 URSArvis PiziksDNKTeam CSC-Tiscali06:12:51  +  00:29:25=35,564 
146 RUSGuennadi MikhailovBELLotto-Adecco06:12:51  +  00:29:25=35,564 
147 NEDKarsten KroonNLDRabobank06:12:58  +  00:29:32=35,553 
148 ITADavide CasarottoITAAlessio06:13:13  +  00:29:47=35,529 
149 AUSBradley McGeeFRAfdjeux.com06:13:18  +  00:29:52=35,521 
150 FRAStéphane BergesFRAAg2r Prevoyance06:13:35  +  00:30:09=35,494 
151 ITAEnrico CassaniBELDomo-Farm Frites06:13:35  +  00:30:09=35,494 
152 ESPJosé GarciaESPibanesto.com06:14:12  +  00:30:46=35,436 
153 FRAEddy SeigneurFRAJean Delatour06:14:12  +  00:30:46=35,436 
154 ESPIgor Flores GalarzaESPEuskaltel - Euskadi06:14:12  +  00:30:46=35,436 
155 ESPDavid LatasaESPibanesto.com06:14:12  +  00:30:46=35,436 
156 FRAChristophe AgnoluttoFRAAg2r Prevoyance06:14:12  +  00:30:46=35,436 
157 FRAJimmy CasperFRAfdjeux.com06:16:54  +  00:33:28=35,182 
158 ITAMarzio BruseghinESPibanesto.com06:23:52  +  00:40:26=34,543 
159 RUSDenis MenchovESPibanesto.com06:24:52  +  00:41:26=34,453 
160 UKRSerhiy HoncharITAFassa Bortolo06:24:55  +  00:41:29=34,449 
161 ITANicola LodaITAFassa Bortolo06:24:55  +  00:41:29=34,449 
162 USAGeorge HincapieUSAUS Postal Service06:24:55  +  00:41:29=34,449 
163 URSViatcheslav EkimovUSAUS Postal Service06:24:55  +  00:41:29=34,449 

Withdrawls: 1
 
Rider
Team
Reason
177  AUTPeter LuttenbergerITATacconi SportDid not finish

Todays birthdays.

1887  Donald Kirkham
1889  Théodore Abada
1911  Guillaume Chavard
1912  Jean Fontenay
1913  Fabien Galateau
1930  Roger Hassenforder
1930  Richard Van Genechten
1936  Philippe Gaudrillet
1937  Joseph Novales
1954  Hans-Peter Jakst
1960  Manuel Ramos
1973  David Etxebarria
1974  Rik Verbrugghe
1976  Jörg Jaksche




Visits: